STARLINK-36957, 67989

Orbit data source: Space-Track

STARLINK-36957, 67989 is a payload satellite owned by SpaceX/Seattle (US) in LEO that was launched on Fri, 27 Feb 2026 UTC via an FALCON 9 launch vehicle from the Air Force Eastern Test Range (AFETR). Payload-class satellites include a variety of spacecraft equipped with specific instruments for various scientific and technological missions. These include communications satellites like Starlink; space stations such as the ISS; scientific satellites like the Hubble; Earth observation satellites from companies like Planet Labs, Umbra, and HawkEye 360; GPS; miniature CubeSats for education and research; and military/defense satellites.

Loading next visibility...
Identifier
67989, 2026-039D
Orbit
LEO
Country
Flag of USUS
Related business
Manufacturer
SpaceX/Seattle
Mission
Operational Commercial Communications
Bus & Motor
STARLINK V2MO, Unknown motor
Mass
575 kg wet, ~530 kg dry
Launch date (UTC)
2026-02-27 (2 months ago)
Launch vehicle
FALCON 9
Launch site
Air Force Eastern Test Range (AFETR)
Object type
Payload
Rocket body
Debris
Shape & HBR
Box + 2 Pan, 17.7 m
Radar Cross Section
36.964 m²

Expand to show TLE details & history
Last TLE update: 7 hours ago

TLE from 7 hours ago
0 STARLINK-36957
1 67989U 26039D   26119.31777744  .00015283  00000-0  56362-3 0  9992
2 67989  43.0033 123.2410 0001402 269.9723  90.0968 15.27588400  9441
Epoch: 2026-04-29T07:37Z
TLE epoch observation values (Epoch: 2026-04-29T07:37:35.970Z)
Latitude
-0.00003°
Longitude
151.56062°
Altitude
482.801 km
Speed
7.626 km/s
True Right ascension
08h 12m 57s
True Declination
0° 00' 00"
Sunlit
Object was in daylight at epoch
Visualization orbit readout
Latitude
Unknown
Longitude
Unknown
Altitude
Unknown
Speed
Unknown
Apparent Right ascension
Unknown
Apparent Declination
Unknown
Sunlit
N/A
Visualization observer readout
Local Sidereal Time
21:53:24
Azimuth
Unknown
Elevation
Unknown
Doppler factor
Unknown
Orbital elements
Apogee altitude
485.931 km
Perigee altitude
484.006 km
Semi-major axis
6,863.106 km
Eccentricity
0.00014
Inclination
43.0033°
RAAN
123.241°
Arg. of periapsis
269.9723°
True anomaly
90.11287°
Mean anomaly
90.0968°
Eccentric anomaly
90.10483°
Mean motion
3.81735 °/min
Orbital period
94.31 mins
BSTAR
0.00056362
Loading maneuver chart data...
Computing Atmospheric mass density...
Loading historical data...
Loading historical data...
Loading historical data...
Loading historical data...
Loading historical data...
Loading historical data...
Loading historical data...

Documentation

Showing up to 5 results
|